Find Local Weather

World > North America > United States > Wisconsin

Appleton, Wisconsin Regional Weather

Lat: 44.26N, Lon: 88.4W
Wx Zone: WIZ038
Warning FLW WEATHER ALERT - (More Info. Click Here) Warning
Feedback
Expires:201810151200;;216977
ASUS43 KGRB 151111
RWRGRB

NORTH-CENTRAL AND NORTHEAST WISCONSIN REGIONAL WEATHER ROUNDUP
NATIONAL WEATHER SERVICE GREEN BAY WI
600 AM CDT MON OCT 15 2018


WIZ038-039-048-051-151200-
FOX VALLEY
  
CITY           SKY/WX    TMP DP  RH WIND       PRES   REMARKS
NWS GREEN BAY  FAIR      35  32  88 W9        30.04R                  
APPLETON       MOCLDY    34  34 100 W10       30.03S                  
OSHKOSH        FAIR      34  31  88 W10       30.06R                  
FOND DU LAC    MOCLDY    34  31  88 W10       30.07R                  
$$


SKY/WX - Weather  TMP - Temperature  DP - Dew Point  RH - Relative Humidity
WIND - Wind Direction/Speed PRES - Barometric Pressure